| time (UTC) | temp C | wind direction | speed KPH | gust KPH | rain 1hr cm | rain 24hr cm | rain mn cm | humidity % | barometer mb |
| 20260507085827 | 11 | 117 | 1.6 | 3.2 | 0.00 | 0.00 | 0.00 | 98 | 1020.0 |
| 20260507084827 | 15 | 117 | 1.6 | 3.2 | 0.00 | 0.00 | 0.00 | 97 | 1020.0 |
| 20260507083826 | 15 | 122 | 1.6 | 4.8 | 0.00 | 0.00 | 0.00 | 97 | 1020.0 |
| 20260507082825 | 13 | 122 | 1.6 | 4.8 | 0.00 | 0.00 | 0.00 | 97 | 1020.0 |
| 20260507081824 | 12 | 122 | 3.2 | 4.8 | 0.00 | 0.00 | 0.00 | 97 | 1020.0 |
| 20260507080824 | 14 | 122 | 3.2 | 4.8 | 0.00 | 0.00 | 0.00 | 97 | 1020.0 |
| 20260507075823 | 15 | 122 | 1.6 | 4.8 | 0.00 | 0.00 | 0.00 | 97 | 1020.0 |
| 20260507074823 | 13 | 122 | 3.2 | 4.8 | 0.00 | 0.00 | 0.00 | 97 | 1020.0 |
| 20260507073822 | 15 | 124 | 1.6 | 4.8 | 0.00 | 0.00 | 0.00 | 98 | 1020.0 |
| 20260507072821 | 13 | 124 | 1.6 | 4.8 | 0.03 | 0.00 | 0.00 | 98 | 1020.0 |
| 20260507071820 | 11 | 124 | 1.6 | 4.8 | 0.00 | 0.00 | 0.00 | 98 | 1020.0 |
| 20260507070820 | 10 | 124 | 3.2 | 4.8 | 0.03 | 0.00 | 0.00 | 98 | 1020.0 |
| 20260507065819 | 15 | 124 | 1.6 | 4.8 | 0.03 | 0.00 | 0.00 | 98 | 1020.0 |
| 20260507064818 | 13 | 124 | 1.6 | 4.8 | 0.00 | 0.00 | 0.00 | 98 | 1020.0 |
| 20260507063818 | 12 | 124 | 3.2 | 4.8 | 0.03 | 0.00 | 0.00 | 98 | 1020.0 |
| 20260507062817 | 16 | 136 | 4.8 | 8.0 | 0.00 | 0.00 | 0.00 | 98 | 1021.0 |
| 20260507061816 | 14 | 136 | 4.8 | 8.0 | 0.00 | 0.00 | 0.00 | 98 | 1021.0 |
| 20260507060816 | 12 | 136 | 4.8 | 8.0 | 0.00 | 0.00 | 0.00 | 98 | 1021.0 |
| 20260507055815 | 11 | 136 | 4.8 | 8.0 | 0.00 | 0.00 | 0.00 | 98 | 1021.0 |
| 20260507054814 | 15 | 135 | 4.8 | 6.4 | 0.00 | 0.00 | 0.00 | 97 | 1021.0 |
| 20260507053813 | 13 | 135 | 4.8 | 6.4 | 0.00 | 0.00 | 0.00 | 97 | 1021.0 |
| 20260507052812 | 11 | 135 | 4.8 | 6.4 | 0.00 | 0.00 | 0.00 | 97 | 1022.0 |
| 20260507051812 | 10 | 135 | 4.8 | 6.4 | 0.00 | 0.00 | 0.00 | 97 | 1022.0 |
| 20260507050811 | 15 | 135 | 4.8 | 6.4 | 0.00 | 0.00 | 0.00 | 97 | 1022.0 |
| 20260507045810 | 13 | 135 | 4.8 | 6.4 | 0.00 | 0.00 | 0.00 | 97 | 1022.0 |
| 20260507044809 | 12 | 135 | 4.8 | 6.4 | 0.00 | 0.00 | 0.00 | 97 | 1022.0 |
| 20260507043809 | 10 | 135 | 4.8 | 6.4 | 0.00 | 0.00 | 0.00 | 97 | 1022.0 |
| 20260507042808 | 16 | 121 | 1.6 | 1.6 | 0.00 | 0.00 | 0.00 | 96 | 1022.0 |
| 20260507041807 | 14 | 121 | 1.6 | 1.6 | 0.00 | 0.00 | 0.00 | 96 | 1022.0 |
| 20260507040806 | 12 | 121 | 1.6 | 3.2 | 0.00 | 0.00 | 0.00 | 96 | 1022.0 |
| 20260507035806 | 15 | 121 | 1.6 | 1.6 | 0.00 | 0.00 | 0.00 | 96 | 1022.0 |
| 20260507034805 | 13 | 121 | 1.6 | 3.2 | 0.00 | 0.00 | 0.00 | 96 | 1022.0 |